Flag for China Weather past 2 weeks in Shenzhen, Guangdong, China

Now
70 °F

Passing clouds.


Feels Like: 70 °F
Forecast: 57 / 73 °F
Wind: 3 mph from East

Location: Shenzhen Airport

Current Time: Feb 28, 2015 at 10:39:51 PM

Latest Report: Feb 28, 2015 at 10:00 PM


Visibility: N/A

Pressure: 30.04 "Hg

Humidity: 78%

Dew point: 63 °F

Location of ShenzhenLocation

Historic Weather in Shenzhen — Graph

°F

Shenzhen temperature yesterday

Maximum temperature yesterday: 73 °F (at 12:00 AM)
Minimum temperature yesterday: 68 °F (at 7:00 PM)
Average temperature yesterday: 72 °F

Past Weeks' High & Low Weather Summary

 TemperatureHumidityPressure
High79 °F (Feb 25, 12:00 PM)94% (Feb 15, 11:00 PM)30.15 "Hg (Feb 15, 11:00 PM)
Low59 °F (Feb 14, 6:00 AM)32% (Feb 13, 10:00 PM)29.86 "Hg (Feb 24, 3:00 PM)
Average69 °F78%30.00 "Hg
* Reported Feb 13 9:00 PM — Feb 28 9:00 PM, Shenzhen, Weather by CustomWeather, © 2015

Note: Actual official high and low records may vary slightly from our data, if they occured in-between our weather recording intervals... More about our weather records

Advertising

Shenzhen weather history for previous 24 hours

 ConditionsComfort  
Time TempWeatherWind HumidityBarometerVisibility
9:00 PM
Sat, Feb 28
70 °FPassing clouds.3 mph78%30.04 "HgN/A
8:00 PM72 °FPassing clouds.10 mph73%30.01 "HgN/A
7:00 PM72 °FPassing clouds.8 mph73%29.98 "HgN/A
6:00 PM73 °FScattered clouds.3 mph69%29.98 "HgN/A
5:00 PM72 °FScattered clouds.6 mph83%29.95 "HgN/A
4:00 PM73 °FScattered clouds.8 mph74%29.95 "HgN/A
3:00 PM73 °FScattered clouds.8 mph74%29.98 "HgN/A
2:00 PM75 °FScattered clouds.8 mph69%29.98 "HgN/A
1:00 PM75 °FScattered clouds.8 mph65%30.01 "HgN/A
12:00 PM73 °FScattered clouds.8 mph69%30.07 "HgN/A
11:00 AM73 °FScattered clouds.6 mph69%30.07 "HgN/A
10:00 AM73 °FPassing clouds.10 mph69%30.07 "HgN/A
9:00 AM70 °FPassing clouds.13 mph73%30.07 "HgN/A
8:00 AM68 °FScattered clouds.8 mph78%30.04 "HgN/A
7:00 AM68 °FPartly sunny.10 mph78%30.04 "HgN/A
6:00 AM68 °FPassing clouds.8 mph78%29.98 "HgN/A
5:00 AM68 °FPassing clouds.10 mph78%29.95 "HgN/A
4:00 AM68 °FPartly cloudy.10 mph83%29.95 "HgN/A
3:00 AM68 °FPassing clouds.10 mph83%29.98 "HgN/A
2:00 AM68 °FPassing clouds.8 mph83%30.01 "HgN/A
1:00 AM68 °FPassing clouds.13 mph83%30.01 "HgN/A
12:00 AM68 °FPartly cloudy.13 mph83%30.01 "HgN/A
11:00 PM
Fri, Feb 27
68 °FPassing clouds.13 mph83%29.98 "HgN/A
10:00 PM68 °FPassing clouds.10 mph83%29.98 "HgN/A
Weather by CustomWeather, © 2015

See weather overviewHow to use our weather pages